This demonstration page uses our WeatherBlox Daily Observations layout. Learn more.

39.92423, -83.80882

Hourly Observations for September 25, 2020

Temp ( °F °C ) Dew Point ( °F °C ) Humidity (%) Winds ( mph kmh ) Pressure ( in mb ) Visibility ( mi km ) Precip ( " mm )
12:56 am 00:56 Clear 53 11.7 53 11.7 100 100 SSE 3 6 30.02 1017 10 16.0934 0 0
1:56 am 01:56 Clear 53 11.7 53 11.7 100 100 SSE 6 9 30.01 1016 10 16.0934 0 0
2:56 am 02:56 Clear 52 11.1 52 11.1 100 100 Calm 30.01 1016 10 16.0934 0 0
3:56 am 03:56 Clear 51 10.6 51 10.6 100 100 NE 3 6 30 1016 7 11.26538 0 0
4:32 am 04:32 Mostly Cloudy with Mist and Fog 52 11 52 11 100 100 NE 3 6 30.02 1016 1 1.60934 0 0
4:40 am 04:40 Clear with Mist and Fog 52 11 52 11 100 100 NE 3 6 30.02 1016 0.75 1.207005 0 0
4:42 am 04:42 Clear with Mist and Fog 52 11 52 11 100 100 NE 3 6 30.02 1016 1.25 2.011675 0 0
4:46 am 04:46 Clear with Mist and Fog 52 11 52 11 100 100 NE 3 6 30.02 1016 3 4.82802 0 0
4:48 am 04:48 Clear with Mist and Fog 52 11 52 11 100 100 NE 3 6 30.02 1016 1.75 2.816345 0 0
4:56 am 04:56 Clear with Mist and Fog 50 10 50 10 100 100 Calm 30.01 1016 1.5 2.41401 0 0
4:58 am 04:58 Clear with Mist and Fog 50 10 50 10 100 100 Calm 30.02 1017 4 6.43736 0 0
5:15 am 05:15 Clear with Mist and Fog 50 10 50 10 100 100 Calm 30.02 1017 2 3.21868 0 0
5:23 am 05:23 Clear 48 9 48 9 100 100 Calm 30.03 1017 7 11.26538 0 0
5:47 am 05:47 Clear with Mist and Fog 50 10 50 10 100 100 ENE 3 6 30.03 1017 1.75 2.816345 0 0
5:50 am 05:50 Mostly Cloudy with Fog 50 10 50 10 100 100 ENE 3 6 30.03 1017 0.5 0.80467 0 0
5:56 am 05:56 Mostly Cloudy with Fog 50 10 50 10 100 100 ENE 3 6 30.02 1017 0.25 0.402335 0 0
6:39 am 06:39 Cloudy with Fog 48 9 48 9 100 100 E 3 6 30.05 1017 0.5 0.80467 0 0
6:46 am 06:46 Cloudy with Fog 50 10 50 10 100 100 E 5 7 30.04 1017 0.25 0.402335 0 0
6:56 am 06:56 Cloudy with Fog 50 10 50 10 100 100 E 5 7 30.03 1017 0.25 0.402335 0 0
7:22 am 07:22 Cloudy with Mist and Fog 48 9 48 9 100 100 ENE 3 6 30.05 1017 0.75 1.207005 0 0
7:26 am 07:26 Cloudy with Mist and Fog 48 9 48 9 100 100 ENE 5 7 30.05 1017 1.25 2.011675 0 0
7:29 am 07:29 Cloudy with Fog 48 9 48 9 100 100 ENE 3 6 30.05 1017 0.5 0.80467 0 0
7:41 am 07:41 Mostly Cloudy with Mist and Fog 48 9 48 9 100 100 E 3 6 30.05 1017 1.25 2.011675 0 0
7:49 am 07:49 Mostly Cloudy with Mist and Fog 48 9 48 9 100 100 ENE 3 6 30.06 1018 0.75 1.207005 0 0
7:56 am 07:56 Mostly Cloudy with Fog 49 9.4 49 9.4 100 100 NE 3 6 30.04 1017 0.5 0.80467 0 0
8:00 am 08:00 Sunny with Mist and Fog 50 10 50 10 100 100 NE 5 7 30.05 1018 1.25 2.011675 0 0
8:07 am 08:07 Sunny with Mist and Fog 50 10 50 10 100 100 ENE 3 6 30.05 1018 3 4.82802 0 0
8:56 am 08:56 Sunny 58 14.4 58 14.4 100 100 ENE 5 7 30.04 1017 9 14.48406 0 0
9:56 am 09:56 Sunny 65 18.3 58 14.4 78 78 E 8 13 30.05 1018 10 16.0934 0 0
10:56 am 10:56 Mostly Cloudy 69 20.6 58 14.4 68 68 E 10 17 30.06 1018 10 16.0934 0 0
11:56 am 11:56 Mostly Cloudy 73 22.8 58 14.4 59 59 ESE 13 20 30.04 1017 10 16.0934 0 0
12:56 pm 12:56 Sunny 76 24.4 56 13.3 50 50 ESE 8 13 30.03 1017 10 16.0934 0 0
1:56 pm 13:56 Sunny 78 25.6 54 12.2 43 43 SSE 12 19 30.01 1016 10 16.0934 0 0
2:56 pm 14:56 Sunny 78 25.6 55 12.8 45 45 SE 8 13 29.98 1015 10 16.0934 0 0
3:56 pm 15:56 Sunny 78 25.6 57 13.9 48 48 VRB 6 9 29.96 1015 10 16.0934 0 0
4:56 pm 16:56 Sunny 78 25.6 58 14.4 50 50 VRB 5 7 29.96 1015 10 16.0934 0 0
5:56 pm 17:56 Cloudy 76 24.4 60 15.6 58 58 SSE 5 7 29.96 1015 10 16.0934 0 0
6:56 pm 18:56 Cloudy 75 23.9 61 16.1 62 62 S 3 6 29.97 1015 10 16.0934 0 0
7:56 pm 19:56 Cloudy 72 22.2 61 16.1 68 68 S 5 7 29.98 1015 10 16.0934 0 0
8:56 pm 20:56 Mostly Cloudy 69 20.6 62 16.7 78 78 S 6 9 29.99 1016 10 16.0934 0 0
9:56 pm 21:56 Cloudy 69 20.6 62 16.7 78 78 S 6 9 29.99 1016 10 16.0934 0 0
10:56 pm 22:56 Cloudy 68 20 63 17.2 84 84 S 7 11 29.99 1016 10 16.0934 0 0
11:56 pm 23:56 Cloudy 67 19.4 63 17.2 87 87 S 3 6 29.99 1016 10 16.0934 0 0

Powered by AerisWeather